Weather History for Henderson, NV

Change the Weather History Date:

Saturday, October 5, 2013

  Actual Average (KLAS) Record (KLAS)
Temperature  
Mean Temperature 60 °F 74 °F  
Max Temperature 73 °F 86 °F 99 °F (1980)
Min Temperature 48 °F 63 °F 41 °F (1937)
Degree Days  
Heating Degree Days 4 0  
Month to date heating degree days 0  
Since 1 July heating degree days 1  
Cooling Degree Days 0 9  
Month to date cooling degree days 51  
Year to date cooling degree days 3428  
Growing Degree Days 10 (Base 50)    
Moisture  
Dew Point 21 °F    
Average Humidity 22    
Maximum Humidity 35    
Minimum Humidity 12    
Precipitation  
Precipitation 0.00 in 0.01 in 0.31 in (2006)
Month to date precipitation 0.03  
Year to date precipitation 3.09  
Snow  
Snow 0.00 in 0.00 in 0.00 in ()
Month to date snowfall 0.0  
Since 1 July snowfall 0.0  
Since 1 September snowfall 0.0  
Snow Depth -    
Sea Level Pressure  
Sea Level Pressure 30.32 in    
Wind  
Wind Speed 8 mph (NE)    
Max Wind Speed 14 mph    
Max Gust Speed 20 mph    
Visibility 10 miles    
Events      
T = Trace of Precipitation, MM = Missing Value Source: NWS Daily Summary

Daily Weather History Graph

Daily Weather History Graph

Search for Another Location

Airport:

Trip Planner

Search our weather history database for the weather conditions in past years. The results will help you decide how hot, cold, wet, or windy it might be!

Date:

Astronomy

Oct. 05, 2013 Rise Set
Actual Time 6:39 AM PDT 6:17 PM PDT
Civil Twilight 6:13 AM PDT 6:43 PM PDT
Nautical Twilight 5:43 AM PDT 7:13 PM PDT
Astronomical Twilight 5:14 AM PDT 7:42 PM PDT
Moon 7:20 AM PDT (10/5) 6:42 PM PDT (10/5)
Length of Visible Light 12h 30m
Length of Day
11h 38m
New Moon, 1% of the Moon is Illuminated
Oct 5
New Moon
Oct 11
First Quarter
Oct 18
Full
Oct 26
Last Quarter
Nov 3
New

Hourly Weather History & Observations

Time (PDT) Temp. Dew Point Humidity Pressure Visibility Wind Dir Wind Speed Gust Speed Precip Events Conditions
12:56 AM 56.8 °F 20.1 °F 24% 30.30 in 10.0 mi NE 10.4 mph 18.4 mph N/A   Clear
1:56 AM 54.9 °F 21.0 °F 27% 30.31 in 10.0 mi NE 8.1 mph - N/A   Clear
2:56 AM 54.9 °F 21.0 °F 27% 30.31 in 10.0 mi NE 10.4 mph - N/A   Clear
3:56 AM 52.9 °F 21.0 °F 29% 30.32 in 10.0 mi NNE 8.1 mph - N/A   Clear
4:56 AM 52.0 °F 21.0 °F 30% 30.34 in 10.0 mi ENE 5.8 mph - N/A   Clear
5:56 AM 50.0 °F 22.1 °F 33% 30.36 in 10.0 mi NE 6.9 mph - N/A   Clear
6:56 AM 48.9 °F 22.1 °F 35% 30.38 in 10.0 mi Calm Calm - N/A   Clear
7:56 AM 54.0 °F 23.0 °F 30% 30.38 in 10.0 mi North 5.8 mph - N/A   Clear
8:56 AM 59.0 °F 23.0 °F 25% 30.40 in 10.0 mi NNE 4.6 mph - N/A   Clear
9:56 AM 61.9 °F 21.0 °F 21% 30.41 in 10.0 mi North 13.8 mph - N/A   Clear
10:56 AM 63.9 °F 21.0 °F 19% 30.40 in 10.0 mi NNE 11.5 mph 18.4 mph N/A   Clear
11:56 AM 66.9 °F 20.1 °F 17% 30.38 in 10.0 mi NNE 11.5 mph - N/A   Clear
12:56 PM 68.0 °F 20.1 °F 16% 30.35 in 10.0 mi NNW 4.6 mph - N/A   Clear
1:56 PM 70.9 °F 20.1 °F 15% 30.32 in 10.0 mi ENE 8.1 mph 18.4 mph N/A   Clear
2:56 PM 72.9 °F 19.0 °F 13% 30.29 in 10.0 mi NNE 10.4 mph 19.6 mph N/A   Clear
3:56 PM 72.9 °F 19.0 °F 13% 30.27 in 10.0 mi NE 8.1 mph - N/A   Clear
4:56 PM 73.9 °F 18.1 °F 12% 30.26 in 10.0 mi NNE 12.7 mph - N/A   Clear
5:56 PM 72.0 °F 19.0 °F 13% 30.26 in 10.0 mi NE 6.9 mph - N/A   Clear
6:56 PM 68.0 °F 20.1 °F 16% 30.26 in 10.0 mi ENE 4.6 mph - N/A   Clear
7:56 PM 63.9 °F 21.0 °F 19% 30.27 in 10.0 mi South 4.6 mph - N/A   Clear
8:56 PM 59.9 °F 18.1 °F 20% 30.27 in 10.0 mi SSW 5.8 mph - N/A   Clear
9:56 PM 55.9 °F 24.1 °F 29% 30.28 in 10.0 mi South 5.8 mph - N/A   Clear
10:56 PM 56.8 °F 22.1 °F 26% 30.28 in 10.0 mi SSE 8.1 mph - N/A   Clear
11:56 PM 54.9 °F 18.1 °F 24% 30.27 in 10.0 mi South 5.8 mph - N/A   Clear